Weather in Dobris

Czech Republic     49°46′52″N   14°10′20″E
temp.,
°C
wind,
m/s
gust,
m/s
humid.,
%
clouds,
%
prec.,
mm/h
press.,
hPa
HPBL,
m
6 march, sat
sat601:00−3wnw11811 0.0 103321
04:00−3wsw11800 0.0 103322
07:00−3wsw11780 0.0 103422
10:00+2w11520 0.0 1034975
13:00+4w12440 0.0 10331267
16:00+4w12470 0.0 10311184
19:00−1ssw12669 0.0 103121
22:00−2sw12710 0.0 103121
7 march, sun
sun701:00−2sw11710 0.0 103021
04:00−3wsw11700 0.0 102821
07:00−3ssw12700 0.0 102822
10:00+3wsw23490 0.0 1026618
13:00+6wnw34440 0.0 1024993
16:00+6wnw24485 0.0 10211173
19:000w11713 0.0 102222
22:00−2nnw11820 0.0 102221
8 march, mon
mon801:00−2nw11900 0.0 102221
04:00−3nw129540 0.0 102146
07:00−2w139070 0.0 1022113
10:00+2nnw246886 0.0 1022805
13:00+3nnw236393 0.0 1022970
16:00+3n236599 0.1 1021945
19:00−1nne118473 0.1 102221
22:00−1se008678 0.0 102321
9 march, tue
tue901:00−2sse118889 0.0 102221
04:00−2s1186100 0.0 102122
07:00−1sse0183100 0.0 102128
10:00+2s1265100 0.0 1021520
13:00+5wsw225799 0.0 10201062
16:00+4wsw236898 0.0 1019904
19:000sw228977 0.0 102126
22:00−1w259382 0.0 1022106
10 march, wed
wed1001:00−1w259464 0.0 1023124
04:00−2wsw249313 0.0 102294
07:00−1wsw27908 0.0 1023182
10:00+5w366650 0.0 1023689
13:00+7wsw356254 0.0 10221002
16:00+7wsw366598 0.0 1020949
19:00+3ssw258087 0.0 1020116
22:00+2ssw3782100 0.0 1020178